TimeCDT,TemperatureF,Dew PointF,Humidity,Sea Level PressureIn,VisibilityMPH,Wind Direction,Wind SpeedMPH,Gust SpeedMPH,PrecipitationIn,Events,Conditions,WindDirDegrees,DateUTC
12:06 AM,71.6,69.8,94,30.07,10.0,South,4.6,-,N/A,,Scattered Clouds,180,2013-05-18 05:06:00
12:26 AM,71.6,69.8,94,30.06,10.0,South,6.9,-,N/A,,Mostly Cloudy,190,2013-05-18 05:26:00
12:34 AM,71.6,69.8,94,30.07,10.0,South,6.9,-,N/A,,Scattered Clouds,180,2013-05-18 05:34:00
12:53 AM,71.6,69.8,94,30.06,10.0,South,5.8,-,N/A,,Mostly Cloudy,190,2013-05-18 05:53:00
12:56 AM,72.0,69.1,91,30.05,10.0,South,5.8,-,N/A,,Mostly Cloudy,190,2013-05-18 05:56:00
1:34 AM,71.6,69.8,94,30.04,10.0,South,6.9,-,N/A,,Overcast,190,2013-05-18 06:34:00
1:56 AM,72.0,69.1,91,30.03,9.0,South,6.9,-,N/A,,Overcast,190,2013-05-18 06:56:00
2:15 AM,71.6,69.8,94,30.03,8.0,South,4.6,-,N/A,,Overcast,180,2013-05-18 07:15:00
2:56 AM,72.0,70.0,93,30.02,9.0,South,4.6,-,N/A,,Overcast,190,2013-05-18 07:56:00
3:22 AM,71.6,69.8,94,30.03,9.0,South,5.8,-,N/A,,Overcast,190,2013-05-18 08:22:00
3:56 AM,72.0,69.1,91,30.02,9.0,SSW,4.6,-,N/A,,Mostly Cloudy,200,2013-05-18 08:56:00
4:25 AM,71.6,69.8,94,30.03,10.0,SSW,6.9,-,N/A,,Scattered Clouds,210,2013-05-18 09:25:00
4:29 AM,71.6,69.8,94,30.03,10.0,SW,5.8,-,N/A,,Mostly Cloudy,220,2013-05-18 09:29:00
4:38 AM,71.6,69.8,94,30.03,9.0,SSW,5.8,-,N/A,,Mostly Cloudy,210,2013-05-18 09:38:00
4:56 AM,72.0,69.1,91,30.02,9.0,SSW,4.6,-,N/A,,Overcast,200,2013-05-18 09:56:00
5:56 AM,73.0,70.0,90,30.04,6.0,SSW,4.6,-,N/A,,Overcast,210,2013-05-18 10:56:00
6:56 AM,73.9,71.1,91,30.06,5.0,SSW,5.8,-,N/A,,Overcast,200,2013-05-18 11:56:00
7:34 AM,73.4,71.6,94,30.07,7.0,South,5.8,-,N/A,,Mostly Cloudy,180,2013-05-18 12:34:00
7:56 AM,75.0,71.1,87,30.07,7.0,SW,8.1,-,N/A,,Mostly Cloudy,230,2013-05-18 12:56:00
8:13 AM,75.2,71.6,89,30.08,7.0,SSW,9.2,-,N/A,,Mostly Cloudy,210,2013-05-18 13:13:00
8:33 AM,75.2,69.8,83,30.09,7.0,SW,10.4,-,N/A,,Mostly Cloudy,230,2013-05-18 13:33:00
8:44 AM,77.0,69.8,78,30.09,7.0,WSW,8.1,-,N/A,,Mostly Cloudy,240,2013-05-18 13:44:00
8:56 AM,77.0,69.1,76,30.09,8.0,SW,9.2,-,N/A,,Mostly Cloudy,220,2013-05-18 13:56:00
9:56 AM,81.0,69.1,67,30.09,8.0,South,8.1,-,N/A,,Scattered Clouds,180,2013-05-18 14:56:00
10:26 AM,78.8,68.0,69,30.10,10.0,SW,8.1,-,N/A,,Mostly Cloudy,220,2013-05-18 15:26:00
10:47 AM,80.6,68.0,65,30.10,10.0,South,10.4,-,N/A,,Mostly Cloudy,190,2013-05-18 15:47:00
10:56 AM,81.0,69.1,67,30.09,10.0,South,8.1,-,N/A,,Mostly Cloudy,170,2013-05-18 15:56:00
11:56 AM,80.1,69.1,69,30.09,10.0,South,9.2,16.1,N/A,,Mostly Cloudy,190,2013-05-18 16:56:00
12:56 PM,82.9,69.1,63,30.07,10.0,South,9.2,-,N/A,,Mostly Cloudy,190,2013-05-18 17:56:00
1:56 PM,82.9,69.1,63,30.06,10.0,SSW,8.1,-,N/A,,Mostly Cloudy,200,2013-05-18 18:56:00
2:56 PM,82.0,69.1,65,30.05,10.0,SSW,6.9,-,N/A,,Mostly Cloudy,200,2013-05-18 19:56:00
3:56 PM,84.0,70.0,63,30.03,10.0,South,9.2,-,N/A,,Partly Cloudy,190,2013-05-18 20:56:00
4:56 PM,84.0,70.0,63,30.02,10.0,South,10.4,-,N/A,,Partly Cloudy,180,2013-05-18 21:56:00
5:56 PM,81.0,70.0,69,30.02,10.0,South,11.5,-,N/A,,Scattered Clouds,170,2013-05-18 22:56:00
6:13 PM,80.6,69.8,70,30.03,10.0,South,12.7,-,N/A,,Mostly Cloudy,180,2013-05-18 23:13:00
6:18 PM,80.6,69.8,70,30.03,10.0,South,11.5,-,N/A,,Scattered Clouds,170,2013-05-18 23:18:00
6:56 PM,78.1,69.1,74,30.03,10.0,South,9.2,-,N/A,,Scattered Clouds,190,2013-05-18 23:56:00
7:56 PM,75.9,69.1,79,30.04,10.0,South,8.1,-,N/A,,Scattered Clouds,190,2013-05-19 00:56:00
8:03 PM,75.2,69.8,83,30.05,10.0,South,9.2,-,N/A,,Mostly Cloudy,180,2013-05-19 01:03:00
8:45 PM,73.4,69.8,88,30.05,10.0,South,6.9,-,N/A,,Scattered Clouds,190,2013-05-19 01:45:00
8:56 PM,73.9,70.0,87,30.05,10.0,South,5.8,-,N/A,,Partly Cloudy,180,2013-05-19 01:56:00
9:56 PM,73.0,70.0,90,30.04,10.0,SSE,6.9,-,N/A,,Partly Cloudy,160,2013-05-19 02:56:00
10:56 PM,72.0,70.0,93,30.04,8.0,SE,5.8,-,N/A,,Partly Cloudy,140,2013-05-19 03:56:00
11:56 PM,72.0,69.1,91,30.03,7.0,SSE,5.8,-,N/A,,Scattered Clouds,160,2013-05-19 04:56:00